User: anonymous   Login
Location: Asheville, NC
(35.6000°N, 82.5500°W)
Time: 06:22:20
(UTC-04:00)
Language:

JUGNU - Orbit

View from above orbital plane
View from above orbital plane
View from above satellite
View from above satellite

Ground track
Ground track

The orbit data is extracted from the following two-line orbital elements,

1 37839U 11058B   18202.25949088 +.00000302 +00000-0 +19329-4 0  9996
2 37839 019.9601 190.6410 0018734 262.3117 211.6390 14.12623966350082
Epoch (UTC): 21 July 2018 06:13:40
Eccentricity: 0.0018734
inclination: 19.9601°
perigee height: 837 km
apogee height: 864 km
right ascension of ascending node: 190.6410°
argument of perigee: 262.3117°
revolutions per day: 14.12623966
mean anomaly at epoch: 211.6390°
orbit number at epoch: 35008

The dashed part of the orbit path shows where the satellite is in the earth's shadow,  

DLR